AirNav   ATP
 
 1034 users online  

15M Iuka Airport
Iuka, Mississippi, USA

GOING TO IUKA?


FAA INFORMATION EFFECTIVE 19 JULY 2018

Location

FAA Identifier: 15M
Lat/Long: 34-46-24.0000N / 088-09-57.9000W
34-46.400000N / 088-09.965000W
34.7733333 / -88.1660833
(estimated)
Elevation: 625.9 ft. / 190.8 m (surveyed)
Variation: 01E (1985)
From city: 3 miles SE of IUKA, MS
Time zone: UTC -5 (UTC -6 during Standard Time)
Zip code: 38852

Airport Operations

Airport use: Open to the public
Control tower: no
ARTCC: MEMPHIS CENTER
FSS: GREENWOOD FLIGHT SERVICE STATION
NOTAMs facility: GWO (NOTAM-D service available)
Attendance: DAYLIGHT HOURS
FOR AFT HRS SVC CTC AMGR 662-424-2855.
Wind indicator: lighted
Segmented circle: yes
Lights: ACTVT MIRL RWY 18/36 - CTAF. RWY LGT INTST CAN BE CHGD M-H.
Beacon: white-green (lighted land airport)
Operates sunset to sunrise.

Airport Communications

CTAF: 122.9
WX AWOS-3PT at 01M (17 nm S): 119.3 (662-260-2266)

Nearby radio navigation aids

VOR radial/distance  VOR name  Freq  Var
MSLr276/33.5MUSCLE SHOALS VORTAC116.5001E
HABr346/35.3HAMILTON VORTAC110.4002E

Airport Services

Fuel available: 100LL
FUEL AVBL 24/7 WITH CC.
Parking: tiedowns
Bottled oxygen: NONE
Bulk oxygen: NONE

Runway Information

Runway 18/36

Dimensions: 4001 x 75 ft. / 1220 x 23 m
Surface: asphalt/grooved, in good condition
Weight bearing capacity: 
Single wheel: 30.0
Runway edge lights: medium intensity
RUNWAY 18  RUNWAY 36
Latitude: 34-46.729340N34-46.071090N
Longitude: 088-09.940763W088-09.990452W
Elevation: 625.9 ft.619.8 ft.
Gradient: 0.6%0.6%
Traffic pattern: leftleft
Markings: basic, in good conditionbasic, in good condition
Visual slope indicator: 4-light PAPI on left (4.00 degrees glide path)
ACTVT PAPI RWY 18/36 - 122.85. HOURS OF OPERATION 0600 - 1800.
4-light PAPI on left (3.00 degrees glide path)
Runway end identifier lights: yesyes
Touchdown point: yes, no lightsyes, no lights
Obstructions: 47 ft. trees, 1400 ft. from runway, 25:1 slope to clear39 ft. trees, 1340 ft. from runway, 200 ft. right of centerline, 29:1 slope to clear
RWY 36 +8 FT FENCE 200 FT FROM THLD 100 FT L.

Airport Ownership and Management from official FAA records

Ownership: Publicly-owned
Owner: TISHOMINGO DIST 1 2 & 3
P.O. BOX 1008
IUKA, MS 38852
Phone 662-423-7032
GREG COLLIER, PRESIDENT, TISHOMINGO COUNTY BOARD OF SUPERVISORS.
Manager: KEITH FALGOUT
1008 BATTLEGROUND DRIVE
IUKA, MS 38852
Phone 662-424-2855

Airport Operational Statistics

Aircraft based on the field: 16
Single engine airplanes: 16
    
Aircraft operations: avg 29/day *
52% local general aviation
44% transient general aviation
3% military
* for 12-month period ending 30 November 2017

Instrument Procedures

There are no published instrument procedures at 15M.

Some nearby airports with instrument procedures:

KCRX - Roscoe Turner Airport (23 nm W)
KSNH - Savannah-Hardin County Airport (24 nm N)
8M1 - Booneville/Baldwyn Airport (26 nm SW)
KMSL - Northwest Alabama Regional Airport (27 nm E)
M22 - Bill Pugh Field Airport (30 nm SE)
 
Loc | Ops | Rwys | IFR | FBO | Links
Com | Nav | Svcs | Stats | Notes


 
Area around 15M (Iuka Airport)
 
Road maps at: MapQuest Bing Google
 
Aerial photo
WARNING: Photo may not be current or correct
Aerial photo of 15M (Iuka Airport)
Photo by Jeff Williams
Photo taken 16-Sep-2007
looking north

Do you have a better or more recent aerial photo of Iuka Airport that you would like to share? If so, please send us your photo.

 
Sectional chart

 
Airport distance calculator
Flying to Iuka Airport? Find the distance to fly.

From to 15M

Sunrise and sunset
Times for 14-Aug-2018
 Local
(UTC-5)
 Zulu
(UTC)
Morning civil twilight05:4610:46
Sunrise06:1311:13
Sunset19:4100:41
Evening civil twilight20:0801:08

Current date and time
Zulu (UTC)  15-Aug-2018 02:05:03
Local (UTC-5)  14-Aug-2018 21:05:03
 
METAR
KCRX 
23nm W 
150155Z AUTO 00000KT 10SM -DZ 26/24 A3000 RMK AO2
KSNH 
24nm N 
150155Z AUTO 00000KT 10SM FEW044 SCT050 SCT060 25/24 A3000 RMK A01
KMSL 
28nm E 
150153Z AUTO 00000KT 10SM CLR 25/22 A3002 RMK AO2 SLP159 T02500217
KSZY 
30nm NW 
150155Z AUTO 00000KT 10SM FEW042 26/24 A3000 RMK A01
TAF
KMSL 
28nm E 
141720Z 1418/1518 27005KT P6SM SCT050 FM150100 00000KT P6SM SKC FM151600 23004KT P6SM FEW050
NOTAMs
Click for the latest NOTAMs
NOTAMs are issued by the DoD/FAA and will open in a separate window not controlled by AirNav.

 

 
 

FBO, Fuel Providers, and Aircraft Ground Support

  
 Business Name 
 
 Contact 
 
 Services / Description 
 
Fuel Prices
 
Comments
  
Iuka Airport 662-423-3037

Like us on facebook
Airport management, Aviation fuel, Aircraft parking (ramp or tiedown), Restrooms

More info about Iuka Airport
Shell
100LL Jet A
SS $4.35 $3.00 
 Updated 05-Jul-2018
 
   3 read write
SS=Self service
Update Fuel Prices
 

Would you like to see your business listed on this page?

 If your business provides an interesting product or service to pilots, flight crews, aircraft, or users of the Iuka Airport, you should consider listing it here.  To start the listing process, click on the button below
 
Add a business
 

Other Pages about Iuka Airport

Update a link
 
Copyright © AirNav, LLC. All rights reserved. Privacy Policy  Contact